Location: Wald
(31.7579°N, 86.6655°W)
Time: 21:18:44
(UTC+00:00)

COSMOS 2455 - Pass Details

Date: 14 July 2020
Orbit: 898 x 911 km, 67.1° (Epoch: 13 August)

Event Time Altitude Azimuth Distance (km) Brightness Sun altitude
Rises 05:10:21 0° 329° (NNW) 3,544 6.8 -35.7°
Reaches altitude 10° 05:12:55 10° 325° (NW) 2,599 5.9 -35.8°
Enters shadow 05:16:26 34° 307° (NW) 1,448 4.1 -35.9°
